FW4479 Weather Reports


time (UTC)temp
F
wind
direction
speed
knots
gust
knots
rain 1hr
in
rain 24hr
in
rain mn
in
humidity
%
barometer
mb
20260504045532 51 234 2.6 6.1 0.00 0.00 0.00 40 1009.6
20260504045032 51 214 2.6 7.8 0.00 0.00 0.00 39 1009.7
20260504044531 51 236 3.5 7.8 0.00 0.00 0.00 39 1009.6
20260504044033 52 251 3.5 7.0 0.00 0.00 0.00 39 1009.6
20260504043530 51 248 2.6 8.7 0.00 0.00 0.00 39 1009.6
20260504043029 52 240 3.5 8.7 0.00 0.00 0.00 39 1009.6
20260504042529 52 240 2.6 6.1 0.00 0.00 0.00 39 1009.7
20260504042027 52 250 2.6 6.1 0.00 0.00 0.00 39 1009.6
20260504041538 52 245 2.6 6.1 0.00 0.00 0.00 39 1009.7
20260504041025 52 235 2.6 7.0 0.00 0.00 0.00 39 1009.7
20260504040524 52 221 2.6 7.8 0.00 0.00 0.00 39 1009.7
20260504040024 53 228 3.5 7.8 0.00 0.00 0.00 39 1009.8
20260504035523 53 240 4.3 10.4 0.00 0.00 0.00 39 1009.8
20260504035023 53 236 6.1 10.4 0.00 0.00 0.00 38 1009.7
20260504034523 53 234 4.3 9.6 0.00 0.00 0.00 39 1009.7
20260504034021 53 242 3.5 13.9 0.00 0.00 0.00 39 1009.7
20260504033521 53 241 7.0 13.9 0.00 0.00 0.00 39 1009.6
20260504033021 52 257 4.3 10.4 0.00 0.00 0.00 40 1009.7
20260504032522 52 250 5.2 10.4 0.00 0.00 0.00 40 1009.8
20260504032024 53 259 4.3 11.3 0.00 0.00 0.00 40 1009.7
20260504031522 53 190 3.5 8.7 0.00 0.00 0.00 39 1009.8
20260504031021 53 277 4.3 10.4 0.00 0.00 0.00 39 1009.7
20260504030521 53 216 2.6 10.4 0.00 0.00 0.00 39 1009.7
20260504030021 53 245 4.3 11.3 0.00 0.00 0.00 39 1009.7
20260504025520 53 233 6.1 11.3 0.00 0.00 0.00 39 1009.7
20260504025020 53 242 5.2 13.0 0.00 0.00 0.00 39 1009.7
20260504024520 53 239 7.0 13.0 0.00 0.00 0.00 39 1009.7
20260504024020 53 264 7.8 13.0 0.00 0.00 0.00 39 1009.8
20260504023519 53 270 7.8 13.9 0.00 0.00 0.00 39 1009.9
20260504023020 54 233 7.8 17.4 0.00 0.00 0.00 38 1010.0
20260504022522 54 276 7.8 19.1 0.00 0.00 0.00 38 1009.9
20260504022018 54 245 9.6 16.5 0.00 0.00 0.00 38 1010.0
20260504021518 54 270 7.0 15.6 0.00 0.00 0.00 38 1010.1
20260504021018 54 233 8.7 20.0 0.00 0.00 0.00 37 1010.1
20260504020518 54 248 7.0 18.2 0.00 0.00 0.00 38 1010.1
20260504020031 54 265 6.1 18.2 0.00 0.00 0.00 37 1010.1
20260504015518 53 269 6.1 9.6 0.00 0.00 0.00 38 1010.2
20260504015018 53 271 4.3 11.3 0.00 0.00 0.00 38 1010.2
20260504014521 53 295 4.3 12.2 0.00 0.00 0.00 39 1010.1
20260504014019 53 259 5.2 11.3 0.00 0.00 0.00 38 1010.2
20260504013517 53 255 6.1 13.0 0.00 0.00 0.00 38 1010.0
20260504013017 53 284 7.8 13.0 0.00 0.00 0.00 38 1010.0
20260504012517 53 255 7.8 19.1 0.00 0.00 0.00 39 1010.1
20260504012118 53 285 6.1 19.1 0.00 0.00 0.00 39 1010.2
20260504011517 53 248 9.6 17.4 0.00 0.00 0.00 38 1010.2
20260504011016 53 268 7.8 20.9 0.00 0.00 0.00 38 1010.3
20260504010516 53 219 8.7 20.9 0.00 0.00 0.00 39 1010.2
20260504010016 53 278 6.1 13.0 0.00 0.00 0.00 40 1010.3
20260504005515 52 300 7.0 16.5 0.00 0.00 0.00 40 1010.3
20260504005015 52 283 7.0 18.2 0.00 0.00 0.00 41 1010.4
20260504004516 53 269 8.7 19.1 0.00 0.00 0.00 40 1010.5
20260504004014 53 278 12.2 22.6 0.00 0.00 0.00 40 1010.5
20260504003514 53 274 11.3 22.6 0.00 0.00 0.00 37 1010.5
20260504003014 53 289 7.0 13.0 0.00 0.00 0.00 36 1010.4
20260504002514 53 276 8.7 17.4 0.00 0.00 0.00 36 1010.3
20260504002015 53 266 7.0 15.6 0.00 0.00 0.00 35 1010.2
20260504001522 53 285 7.0 17.4 0.00 0.00 0.00 35 1010.1
20260504001014 53 239 6.1 15.6 0.00 0.00 0.00 36 1010.0
20260504000515 53 289 7.8 15.6 0.00 0.00 0.00 35 1010.1
20260504000012 53 259 5.2 18.2 0.00 0.00 0.00 36 1010.1
20260503235512 53 288 8.7 18.2 0.00 0.00 0.00 36 1010.2
20260503235012 53 269 8.7 21.7 0.00 0.00 0.00 36 1010.2
20260503234512 53 317 10.4 21.7 0.00 0.00 0.00 36 1010.3
20260503234013 53 261 7.8 20.0 0.00 0.00 0.00 36 1010.5
20260503233512 54 262 8.7 20.0 0.00 0.00 0.00 35 1010.3
20260503233018 54 250 8.7 23.5 0.00 0.00 0.00 35 1010.2
20260503232514 54 297 11.3 23.5 0.00 0.00 0.00 34 1010.1
20260503232011 54 290 7.0 13.9 0.00 0.00 0.00 37 1010.1
20260503231512 54 275 6.1 20.0 0.00 0.00 0.00 36 1010.0
20260503231011 55 279 9.6 22.6 0.00 0.00 0.00 34 1009.9
20260503230513 55 267 9.6 22.6 0.00 0.00 0.00 33 1010.0
20260503230025 55 273 7.0 20.0 0.00 0.00 0.00 32 1009.9
20260503225509 55 242 7.8 16.5 0.00 0.00 0.00 31 1009.7
20260503225009 55 271 9.6 16.5 0.00 0.00 0.00 30 1009.8
20260503224509 55 262 5.2 13.9 0.00 0.00 0.00 30 1009.8
20260503224011 55 274 7.0 18.2 0.00 0.00 0.00 31 1009.8
20260503223511 55 299 8.7 18.2 0.00 0.00 0.00 30 1009.8
20260503223009 55 266 9.6 15.6 0.00 0.00 0.00 31 1009.9
20260503222509 55 311 7.0 15.6 0.00 0.00 0.00 31 1009.9
20260503222007 55 285 7.0 15.6 0.00 0.00 0.00 31 1009.8
20260503221508 55 330 7.8 15.6 0.00 0.00 0.00 30 1009.8
20260503221007 55 292 6.1 13.0 0.00 0.00 0.00 32 1009.8
20260503220507 55 287 7.0 13.0 0.00 0.00 0.00 32 1009.9
20260503220008 55 318 5.2 16.5 0.00 0.00 0.00 32 1009.9
20260503215507 55 345 7.0 16.5 0.00 0.00 0.00 30 1009.9
20260503215006 55 305 7.8 13.9 0.00 0.00 0.00 31 1009.9
20260503214519 56 333 8.7 15.6 0.00 0.00 0.00 30 1009.8
20260503214010 56 275 8.7 16.5 0.00 0.00 0.00 30 1009.9
20260503213505 56 283 6.1 16.5 0.00 0.00 0.00 31 1009.8
20260503213005 56 283 6.1 15.6 0.00 0.00 0.00 29 1009.8
20260503212508 56 283 7.0 16.5 0.00 0.00 0.00 31 1009.7
20260503212004 56 282 7.8 16.5 0.00 0.00 0.00 30 1009.7
20260503211504 57 275 7.0 12.2 0.00 0.00 0.00 32 1009.7
20260503211002 56 311 6.1 11.3 0.00 0.00 0.00 33 1009.7
20260503210502 55 255 4.3 7.8 0.00 0.00 0.00 33 1009.9
20260503210001 55 280 4.3 7.8 0.00 0.00 0.00 32 1009.8
20260503205600 55 233 2.6 9.6 0.00 0.00 0.00 32 1009.8
20260503205100 55 359 5.2 12.2 0.00 0.00 0.00 32 1010.0
20260503204620 55 309 4.3 12.2 0.00 0.00 0.00 33 1010.0
20260503204057 55 287 4.3 11.3 0.00 0.00 0.00 33 1010.1
20260503203557 55 252 5.2 11.3 0.00 0.00 0.00 33 1010.1
20260503203101 55 300 3.5 12.2 0.00 0.00 0.00 34 1010.2
20260503202556 54 268 6.1 12.2 0.00 0.00 0.00 33 1010.2
20260503202058 54 283 3.5 7.0 0.00 0.00 0.00 36 1010.4
20260503201555 54 260 2.6 11.3 0.00 0.00 0.00 33 1010.4
20260503201054 54 259 6.1 11.3 0.00 0.00 0.00 33 1010.4
20260503200554 53 251 7.0 11.3 0.00 0.00 0.00 33 1010.6
20260503200053 53 274 6.1 12.2 0.00 0.00 0.00 35 1010.9
20260503195552 54 272 7.8 12.2 0.00 0.00 0.00 33 1010.9
20260503195051 54 263 5.2 12.2 0.00 0.00 0.00 32 1011.1
20260503194551 54 307 5.2 12.2 0.00 0.00 0.00 33 1011.1
20260503194050 55 262 5.2 12.2 0.00 0.00 0.00 33 1011.1
20260503193551 54 289 6.1 11.3 0.00 0.00 0.00 32 1011.2
20260503193056 54 273 3.5 11.3 0.00 0.00 0.00 35 1011.2
20260503192549 54 295 4.3 10.4 0.00 0.00 0.00 34 1011.3
20260503192048 53 263 4.3 11.3 0.00 0.00 0.00 35 1011.4
20260503191606 53 248 5.2 11.3 0.00 0.00 0.00 35 1011.5
20260503191046 53 294 6.1 13.9 0.00 0.00 0.00 33 1011.7
20260503190546 53 322 7.8 13.9 0.00 0.00 0.00 34 1011.7
20260503190045 53 257 6.1 15.6 0.00 0.00 0.00 35 1011.7
20260503185544 54 238 7.0 15.6 0.00 0.00 0.00 34 1011.7
20260503185044 53 256 7.8 15.6 0.00 0.00 0.00 33 1012.1
20260503184543 53 245 7.0 14.8 0.00 0.00 0.00 35 1012.0
20260503184046 52 261 7.8 14.8 0.00 0.00 0.00 35 1011.9
20260503183541 52 309 6.1 13.0 0.00 0.00 0.00 34 1012.2
20260503183041 52 280 6.1 16.5 0.00 0.00 0.00 32 1012.3
20260503182541 52 239 8.7 13.0 0.00 0.00 0.00 32 1012.3
20260503182043 52 293 5.2 12.2 0.00 0.00 0.00 33 1012.4
20260503181640 52 252 7.0 13.9 0.00 0.00 0.00 34 1012.4
20260503181039 52 236 7.0 13.9 0.00 0.00 0.00 32 1012.5
20260503180539 52 279 6.1 13.0 0.00 0.00 0.00 31 1012.4
20260503180042 52 274 7.0 13.0 0.00 0.00 0.00 31 1012.5
20260503175537 53 276 5.2 13.0 0.00 0.00 0.00 33 1012.4
20260503175037 53 317 6.1 12.2 0.00 0.00 0.00 34 1012.5
20260503174545 53 242 7.0 11.3 0.00 0.00 0.00 37 1012.6
20260503174036 52 274 7.0 11.3 0.00 0.00 0.00 33 1012.7
20260503173536 52 283 5.2 11.3 0.00 0.00 0.00 36 1012.6
20260503173037 53 290 7.0 12.2 0.00 0.00 0.00 35 1012.6
20260503172535 52 252 8.7 12.2 0.00 0.00 0.00 32 1012.5
20260503172034 52 297 7.0 13.9 0.00 0.00 0.00 34 1012.6
20260503171533 52 279 6.1 14.8 0.00 0.00 0.00 34 1012.5
20260503171034 52 257 6.1 12.2 0.00 0.00 0.00 36 1012.6
20260503170533 52 266 6.1 13.9 0.00 0.00 0.00 37 1012.7
20260503150514 47 259 5.2 10.4 0.00 0.00 0.00 44 1014.2
20260503150115 47 300 4.3 10.4 0.00 0.00 0.00 44 1014.1
20260503131059 43 295 4.3 8.7 0.00 0.00 0.00 45 1015.0
20260503130558 43 302 4.3 7.8 0.00 0.00 0.00 48 1015.0
20260503110542 36 252 3.5 7.0 0.00 0.00 0.00 60 1014.5
20260503081534 35 255 2.6 6.1 0.00 0.00 0.00 65 1014.5
20260503081026 35 237 2.6 5.2 0.00 0.00 0.00 65 1014.5
20260503080525 35 230 2.6 5.2 0.00 0.00 0.00 64 1014.4
20260503072518 36 242 1.7 4.3 0.00 0.00 0.00 64 1014.4
20260503072017 36 234 1.7 3.5 0.00 0.00 0.00 63 1014.4
20260503071516 36 233 0.9 4.3 0.00 0.00 0.00 63 1014.5
20260503071015 36 226 1.7 5.2 0.00 0.00 0.00 63 1014.5
20260503070518 36 229 2.6 5.2 0.00 0.00 0.00 63 1014.4
20260503055004 37 233 3.5 7.0 0.00 0.00 0.00 61 1014.6
20260503054504 37 271 3.5 7.8 0.00 0.00 0.00 61 1014.6
20260503054006 37 271 3.5 7.8 0.00 0.00 0.00 61 1014.7
20260503053502 38 262 2.6 6.1 0.00 0.00 0.00 61 1014.8
20260503053002 38 245 2.6 5.2 0.00 0.00 0.00 60 1014.7
20260503052600 38 226 2.6 6.1 0.00 0.00 0.00 60 1014.7
20260503052100 38 264 3.5 6.1 0.00 0.00 0.00 60 1014.8
20260503051558 38 244 2.6 6.1 0.00 0.00 0.00 60 1014.9
20260503051100 38 265 2.6 7.0 0.00 0.00 0.00 60 1014.9
20260503050558 38 256 2.6 7.0 0.00 0.00 0.00 60 1015.1
20260503050057 38 242 2.6 5.2 0.00 0.00 0.00 60 1015.0